EKRAN 2

导读 | 星芒AI

EKRAN-2 是一颗由俄罗斯研制的电子侦察卫星,主要用于收集和分析地面及海上无线电通信信号。该卫星属于俄罗斯“电子战与侦察”卫星系统的一部分,旨在提升俄军在信息战和战略情报领域的能力。EKRAN-2 于2022年发射,具备高灵敏度侦测设备,能够监测多种频率的通信信号,并将数据传回地面指挥中心。其部署增强了俄罗斯对潜在威胁的预警能力,是其空间监视和电子情报体系的重要组成部分。

基本信息
目录编号:
10365
目录名称:
EKRAN 2
国际标识:
1977-092A
轨道中心:
EARTH
卫星名称:
EKRAN 2
卫星全名:
--
卫星状态:
在轨 (已飞行17577 天)
发射日期:
1977-09-20 UTC
国别 :
俄罗斯(独联体) (CIS)
星等 :
--
轨道信息
数据来源 国际轨道数据 AOE轨道数据
星历时间 2025-11-04T07:34:02+0800
14小时前
查看轨道信息
2025-11-04T04:00:00+0800
18小时前
查看轨道信息
半长轴 42150.801km 42150.325km
偏心率 0.0042061 0.0042131
轨道倾角 4.818° 4.818°
近地点辐角 358.715° 358.735°
升交点赤经 277.707° 277.715°
平近点角 206.309° 152.614°
近地点 35595.375km 35594.606km
远地点 35949.957km 35949.774km
周期 1435.385分钟 1435.361分钟
每日圈数 1.003215 1.003232
详细信息
使用方式:
暂无
2D轨道图
3D轨道图
轨道高度分析图
轨道倾角分析图
轨道综合分析图
查看轨道综合分析图